CW4525 Weather Reports


Display with metric or nautical units.
time (UTC)temp
F
wind
direction
speed
MPH
gust
MPH
rain 1hr
in
rain 24hr
in
rain mn
in
humidity
%
barometer
mb
20260508010026 50 250 4.0 8.0 0.00 0.02 0.01 45 1003.4
20260508004523 50 271 4.0 9.0 0.00 0.02 0.01 44 1003.1
20260508003041 51 266 4.0 9.0 0.00 0.02 0.01 44 1002.9
20260508001517 51 247 5.0 10.0 0.00 0.02 0.01 43 1002.9
20260508000016 52 269 2.0 6.0 0.00 0.02 0.01 42 1002.9
20260507234514 53 298 3.0 10.0 0.00 0.02 0.01 40 1002.6
20260507233023 53 306 4.0 12.0 0.00 0.02 0.01 40 1002.5
20260507231513 54 296 6.0 13.0 0.00 0.02 0.01 38 1002.4
20260507230015 55 263 8.0 14.0 0.00 0.02 0.01 37 1002.4
20260507224515 55 283 6.0 13.0 0.00 0.02 0.01 37 1002.4
20260507223011 55 280 9.0 15.0 0.00 0.02 0.01 36 1002.4
20260507221510 56 257 8.0 14.0 0.00 0.02 0.01 36 1002.3
20260507220012 57 297 8.0 16.0 0.00 0.02 0.01 36 1002.2
20260507214512 57 302 8.0 16.0 0.00 0.02 0.01 35 1002.0
20260507213011 57 351 7.0 16.0 0.00 0.02 0.01 35 1001.8
20260507211508 57 360 6.0 15.0 0.00 0.02 0.01 35 1001.8
20260507210008 57 278 8.0 18.0 0.00 0.02 0.01 35 1001.8
20260507204506 58 296 9.0 16.0 0.00 0.03 0.01 33 1001.8
20260507203012 59 255 10.0 23.0 0.00 0.03 0.01 35 1001.8
20260507201505 59 355 6.0 18.0 0.00 0.03 0.01 33 1001.8
20260507200006 59 286 9.0 22.0 0.00 0.04 0.01 32 1001.8
20260507194503 61 259 8.0 19.0 0.00 0.04 0.01 34 1001.8
20260507193004 61 328 9.0 21.0 0.00 0.04 0.01 39 1001.8
20260507191559 60 313 7.0 21.0 0.00 0.04 0.01 35 1002.1
20260507190055 59 240 7.0 16.0 0.00 0.04 0.01 38 1002.3
20260507184554 57 292 3.0 20.0 0.00 0.06 0.01 40 1002.4
20260507183054 57 285 7.0 18.0 0.00 0.06 0.01 37 1002.7
20260507181553 57 286 8.0 15.0 0.00 0.06 0.01 38 1002.5
20260507180053 57 278 9.0 25.0 0.00 0.06 0.01 34 1002.8
20260507174552 58 248 9.0 22.0 0.00 0.07 0.01 39 1002.8
20260507173053 57 239 9.0 23.0 0.00 0.07 0.01 39 1002.6
20260507171554 57 284 7.0 23.0 0.00 0.07 0.01 39 1002.8
20260507170048 57 216 12.0 23.0 0.00 0.07 0.01 40 1002.9
20260507164547 56 323 8.0 19.0 0.00 0.07 0.01 42 1003.3
20260507163045 56 300 10.0 22.0 0.00 0.07 0.01 42 1003.3
20260507161545 56 262 11.0 23.0 0.00 0.07 0.01 41 1003.4
20260507160043 56 237 10.0 26.0 0.00 0.07 0.01 41 1003.3
20260507154539 56 246 10.0 19.0 0.00 0.07 0.01 45 1003.3
20260507153038 55 261 8.0 16.0 0.00 0.07 0.01 49 1003.6
20260507151537 55 250 8.0 21.0 0.00 0.07 0.01 49 1003.8
20260507150034 55 299 8.0 22.0 0.00 0.07 0.01 52 1003.9
20260507144534 54 218 8.0 22.0 0.00 0.07 0.01 56 1003.8
20260507143032 53 267 8.0 19.0 0.00 0.07 0.01 64 1003.8
20260507141526 54 279 8.0 20.0 0.00 0.07 0.01 65 1003.7
20260507140027 52 304 7.0 13.0 0.00 0.07 0.01 67 1003.5
20260507134525 51 254 6.0 14.0 0.00 0.07 0.01 70 1003.7
20260507133022 51 310 5.0 15.0 0.00 0.07 0.01 71 1003.8
20260507131523 51 294 6.0 18.0 0.00 0.07 0.01 70 1003.8
20260507130016 51 271 7.0 14.0 0.00 0.07 0.01 71 1003.9
20260507124515 50 329 5.0 12.0 0.00 0.07 0.01 74 1003.9
20260507123018 49 295 9.0 16.0 0.00 0.07 0.01 74 1003.8
20260507121510 48 261 5.0 16.0 0.00 0.07 0.01 77 1003.9
20260507120009 47 332 3.0 15.0 0.00 0.07 0.01 81 1004.0
20260507114508 46 290 2.0 6.0 0.00 0.07 0.01 84 1004.0
20260507113005 46 339 0.0 7.0 0.00 0.07 0.01 85 1003.8
20260507111503 45 280 4.0 8.0 0.00 0.07 0.01 86 1003.8
20260507110003 45 331 2.0 8.0 0.00 0.07 0.01 86 1003.7
20260507104559 45 306 4.0 9.0 0.00 0.07 0.01 86 1003.3
20260507103058 45 296 4.0 10.0 0.00 0.07 0.01 86 1003.2
20260507101606 45 284 4.0 10.0 0.00 0.07 0.01 85 1003.3
20260507100055 46 280 4.0 12.0 0.00 0.07 0.01 85 1002.8
20260507094559 46 309 4.0 12.0 0.00 0.07 0.01 85 1003.3
20260507093051 46 310 5.0 12.0 0.00 0.07 0.01 86 1003.3
20260507091600 46 304 4.0 9.0 0.00 0.07 0.01 85 1003.4
20260507090108 46 278 5.0 12.0 0.00 0.07 0.01 85 1003.6
20260507084545 46 248 4.0 12.0 0.00 0.07 0.01 86 1003.5
20260507083043 46 260 6.0 12.0 0.00 0.07 0.01 87 1003.1
20260507081551 46 267 5.0 11.0 0.00 0.07 0.01 87 1003.2
20260507080039 46 238 3.0 9.0 0.00 0.07 0.01 88 1002.8
20260507074541 47 302 5.0 12.0 0.00 0.07 0.01 89 1003.0
20260507073044 47 262 5.0 9.0 0.00 0.07 0.01 89 1003.0
20260507071534 47 279 4.0 11.0 0.00 0.07 0.01 88 1002.6
20260507070039 47 271 6.0 13.0 0.00 0.07 0.01 88 1002.6
20260507064531 47 296 5.0 11.0 0.00 0.07 0.01 89 1002.7
20260507063030 48 276 6.0 14.0 0.00 0.07 0.01 90 1002.5
20260507061533 48 289 5.0 11.0 0.00 0.07 0.01 90 1002.5
20260507060033 48 322 5.0 10.0 0.00 0.07 0.01 91 1002.7
20260507054524 48 304 6.0 11.0 0.01 0.07 0.01 92 1003.0
20260507053021 48 275 4.0 8.0 0.01 0.07 0.01 91 1002.7
20260507051520 48 231 1.0 6.0 0.01 0.07 0.01 91 1003.0
20260507050030 48 270 2.0 6.0 0.01 0.07 0.01 91 1003.0
20260507044531 49 277 3.0 9.0 0.00 0.06 0.00 92 1002.7
20260507043014 49 263 3.0 11.0 0.00 0.06 0.00 92 1002.4
20260507041513 49 281 5.0 10.0 0.00 0.06 0.00 92 1002.9
20260507040010 50 270 5.0 9.0 0.00 0.06 0.00 92 1002.8
20260507034507 50 266 4.0 10.0 0.00 0.06 0.06 92 1002.6
20260507033008 51 269 5.0 14.0 0.01 0.06 0.06 92 1002.4
20260507031601 52 338 8.0 16.0 0.01 0.06 0.06 92 1002.1
20260507030107 53 265 6.0 13.0 0.01 0.06 0.06 92 1001.9
20260507024556 54 292 7.0 21.0 0.01 0.06 0.06 91 1002.3
20260507023049 55 274 4.0 12.0 0.00 0.05 0.05 92 1002.3
20260507021604 56 262 5.0 15.0 0.00 0.05 0.05 92 1001.7
20260507020051 57 289 8.0 15.0 0.00 0.05 0.05 92 1001.5
20260507014553 58 279 7.0 14.0 0.00 0.05 0.05 93 1001.3
20260507013039 58 248 6.0 13.0 0.00 0.05 0.05 93 1000.8
20260507011539 59 176 7.0 15.0 0.00 0.05 0.05 92 1000.8
20260507010038 59 202 6.0 10.0 0.00 0.05 0.05 92 1000.8